Helicity
-1 5 9 35 32 43 53 63 99 60 60 79 87 78 93 142 159 186 49 94 130 54 42 51 72 67 58 53 58 53 48 45 34 25 17 7 4 4 6 13 21 51 35 33 49 71 90 82 64
-4 5 16 20 36 42 46 58 34 41 90 85 76 62 79 70 128 111 66 74 95 73 38 39 61 67 58 62 56 55 48 40 35 23 20 21 10 9 24 19 24 36 20 20 48 56 49 39 38
10 9 14 24 34 29 57 34 38 61 71 82 86 93 116 120 96 122 73 60 54 50 35 45 50 50 55 62 59 60 56 49 41 27 39 19 4 20 45 47 58 33 24 22 47 83 57 42 32
31 36 45 24 16 30 51 49 61 59 65 77 87 83 92 94 97 110 122 95 66 44 38 50 14 25 44 64 53 45 38 56 52 37 17 8 11 35 73 89 80 46 29 35 53 87 62 16 32
46 52 53 37 26 52 30 45 83 70 93 87 98 84 81 77 81 85 97 90 82 63 51 32 20 26 32 42 58 41 29 34 36 38 23 37 44 56 73 92 65 46 21 25 26 63 33 25 66
70 61 52 30 52 73 61 60 69 55 71 117 112 94 77 94 83 92 97 84 83 72 68 62 41 32 25 39 44 48 42 37 43 42 31 48 82 102 82 81 56 47 37 49 44 25 25 37 66
72 82 56 43 32 64 88 95 99 82 78 85 152 116 107 69 84 113 119 117 118 109 94 79 63 49 52 51 52 40 46 46 53 57 55 65 103 106 98 86 75 36 36 45 22 15 28 38 82
87 68 73 75 49 43 93 109 97 83 74 174 152 129 72 107 91 129 158 163 151 132 112 105 96 83 65 54 63 58 50 61 63 80 66 86 108 101 88 93 80 55 43 34 14 23 59 86 102
132 118 66 79 66 53 79 73 100 120 113 139 139 151 159 128 91 104 125 147 140 146 142 141 124 107 93 87 86 76 63 66 70 73 109 114 71 52 64 60 70 45 46 26 10 15 51 124 120
103 127 102 95 78 89 81 66 92 119 110 111 94 89 96 125 86 64 86 92 108 110 118 128 125 110 99 103 91 71 70 73 69 67 97 70 53 44 35 62 56 54 34 21 5 25 100 77 110
146 153 134 97 94 103 101 95 126 115 93 73 61 36 48 80 76 85 77 77 76 91 123 108 96 93 85 86 91 102 103 94 87 78 103 135 110 89 67 63 49 53 35 45 58 88 66 83 122
157 99 93 127 132 127 117 149 110 106 73 71 28 37 96 92 82 64 64 70 66 72 58 68 55 69 73 84 91 92 93 97 105 105 126 214 172 84 69 71 54 45 48 51 78 67 85 94 100
124 96 110 119 114 107 95 85 80 82 89 63 46 43 61 69 59 69 80 68 60 49 26 9 34 74 91 90 90 99 95 95 85 108 137 209 181 120 75 72 71 57 50 68 101 110 123 121 105
207 137 106 121 102 108 82 60 95 157 53 35 48 58 36 59 54 67 95 71 59 42 42 50 60 73 79 82 91 107 111 92 85 105 119 185 171 154 132 84 78 72 74 62 108 134 137 135 75
110 128 98 93 77 125 137 132 149 67 98 86 76 80 92 95 80 111 85 96 76 60 54 54 53 62 74 72 75 97 97 119 114 106 86 108 218 185 176 133 94 87 80 68 115 147 119 148 92
131 174 230 265 205 147 95 188 132 169 177 168 140 81 188 179 149 162 151 118 83 65 54 53 69 67 78 95 106 107 102 102 119 140 138 95 123 198 202 191 147 96 99 102 120 168 185 102 114
151 271 256 245 151 157 85 137 174 109 157 197 242 205 226 287 196 195 160 106 89 92 80 76 91 82 78 100 130 123 112 106 91 133 158 124 117 114 185 206 163 134 170 120 145 162 163 154 113
212 154 160 180 167 122 99 76 66 65 93 116 155 228 210 187 145 167 189 156 125 119 126 110 104 96 113 130 150 157 150 139 135 136 135 134 146 136 130 240 229 248 185 166 190 191 177 190 148
132 133 128 122 117 86 104 116 115 86 100 107 124 80 136 77 66 128 175 187 184 169 165 160 116 114 160 189 184 161 151 137 155 146 108 128 137 134 142 142 284 319 319 250 178 229 279 226 227
156 168 172 126 88 130 149 125 93 74 116 150 136 102 45 61 122 197 219 260 297 280 227 185 163 168 193 214 190 176 120 124 111 139 139 139 115 119 149 164 190 296 346 352 323 265 292 336 308
159 152 138 138 139 132 133 119 64 164 154 145 180 191 235 272 278 289 291 291 324 332 318 252 178 194 207 230 222 211 222 197 183 166 164 168 133 142 141 161 177 239 268 293 369 343 291 428 348
236 125 143 134 153 193 166 169 96 152 163 168 155 177 223 282 317 324 314 333 333 347 313 289 259 184 176 184 195 177 139 116 112 114 123 128 132 142 154 169 179 189 248 284 325 355 385 389 342
135 115 137 111 99 93 107 175 86 210 161 204 199 188 204 213 233 273 305 329 335 328 374 368 272 268 160 149 151 144 128 124 118 116 107 105 120 135 150 169 163 215 265 267 273 321 351 273 314
138 173 150 61 101 162 83 69 76 136 174 247 257 275 295 298 280 259 281 285 322 352 360 361 362 367 363 236 147 120 94 87 100 99 105 115 132 146 160 181 165 187 226 237 255 244 315 298 268
164 187 214 186 141 103 95 87 106 236 299 296 289 294 298 304 310 326 339 350 365 382 386 374 377 370 346 294 264 207 107 82 69 76 91 103 110 120 117 138 167 196 218 213 250 234 290 258 268
119 103 139 240 131 98 68 58 197 316 393 374 369 368 390 439 445 458 444 396 409 436 389 410 415 336 336 301 275 236 242 124 66 46 58 96 107 85 82 101 125 106 123 187 240 253 264 297 289
139 115 194 92 -9 54 50 63 94 96 232 421 611 464 457 490 543 590 584 547 417 446 472 378 359 330 327 321 272 226 181 167 153 72 68 83 101 99 94 110 98 92 95 126 195 301 305 291 281
116 70 95 92 143 101 50 131 313 180 132 192 273 243 351 357 380 425 487 567 591 525 393 397 313 268 308 284 265 242 208 168 145 131 77 73 76 80 105 126 122 113 117 116 149 232 270 293 287
69 115 107 103 120 122 48 34 227 274 290 266 250 225 230 181 298 328 309 316 396 467 491 393 286 278 243 271 233 224 212 192 152 144 173 97 85 69 83 106 123 160 151 136 150 201 238 278 266
112 291 239 205 233 177 58 86 78 57 112 117 156 182 191 207 168 183 208 192 183 228 312 387 312 309 269 212 188 164 171 182 152 141 155 105 114 60 84 77 92 144 173 162 152 136 221 294 302
Wind_Speed
34 30 26 24 31 37 44 43 39 36 36 30 32 31 39 45 39 43 30 26 28 16 5 7 8 5 2 1 1 2 3 2 2 2 7 14 14 14 15 10 4 3 7 11 14 14 13 14 16
30 28 27 29 39 45 46 37 38 34 33 37 36 36 40 40 41 36 29 30 26 16 9 10 11 10 8 5 4 3 2 2 4 2 6 12 16 17 10 9 8 6 9 12 13 14 14 17 15
28 29 29 34 38 45 47 38 38 37 35 38 37 37 40 39 36 34 32 33 27 18 17 16 13 13 12 11 10 8 8 5 6 10 10 13 15 9 4 6 13 19 16 18 15 12 15 13 12
28 27 31 38 42 42 42 39 33 34 34 36 38 42 39 37 33 31 34 29 23 17 17 17 13 15 15 13 14 14 12 10 8 9 12 12 14 9 4 10 18 20 19 20 14 10 12 11 9
27 26 34 41 45 42 33 35 29 31 33 32 35 45 43 36 34 33 30 27 23 19 19 18 19 14 15 18 16 17 20 17 15 12 11 10 9 10 11 11 16 20 18 17 15 8 7 11 9
26 27 39 44 42 38 31 17 20 30 30 32 40 45 46 35 34 32 31 28 27 23 24 23 24 26 28 19 21 19 20 22 19 16 14 11 9 7 12 12 13 19 20 19 18 13 6 7 7
24 30 39 42 48 44 37 20 9 17 20 29 38 46 44 40 33 34 33 32 29 29 32 32 30 30 34 35 29 26 25 24 24 22 18 14 10 11 12 14 14 18 21 19 18 15 15 13 5
24 28 39 36 45 46 30 23 23 8 15 26 26 46 50 42 30 31 34 34 33 35 39 38 37 35 34 36 38 33 31 27 25 23 22 16 11 11 14 17 18 21 20 18 16 13 15 6 1
25 28 37 38 41 46 30 29 24 22 13 18 21 34 36 37 26 33 40 42 40 41 42 43 43 42 41 41 39 41 38 33 30 29 24 18 21 18 19 25 16 21 21 18 18 15 17 8 6
25 34 36 37 39 44 39 35 35 31 22 22 26 24 36 40 37 41 45 49 48 45 43 45 45 46 45 44 45 43 43 42 37 32 27 30 30 28 25 21 19 18 22 22 19 20 10 10 13
31 40 42 45 45 46 48 45 39 41 39 33 37 36 36 46 49 48 51 53 53 51 49 46 48 50 47 47 46 45 46 44 42 36 33 35 31 27 26 23 21 21 19 21 23 16 19 20 16
43 40 42 46 47 52 56 56 55 49 50 49 47 47 47 41 47 49 53 55 58 61 65 67 65 60 55 52 49 49 45 44 44 39 34 34 32 27 28 27 24 21 20 19 21 23 24 21 19
47 51 49 51 56 59 61 60 65 66 60 54 56 56 56 55 55 56 55 58 62 69 73 74 67 63 60 57 54 49 47 44 42 40 37 37 34 32 28 28 27 26 23 23 24 26 24 25 23
54 55 57 59 60 61 68 68 70 68 66 69 67 65 64 66 63 60 59 60 64 66 66 63 62 58 55 54 51 49 49 45 44 42 39 40 40 36 32 29 28 29 29 28 26 27 25 28 25
57 72 70 66 61 60 59 78 71 74 70 73 72 71 64 63 58 60 59 59 58 61 62 61 59 59 57 53 51 49 47 48 47 43 39 38 43 42 36 34 32 31 30 31 29 30 27 30 30
66 71 80 58 52 58 54 90 75 62 63 67 69 66 68 62 57 56 57 61 60 64 65 64 58 54 52 52 48 47 47 47 48 45 45 41 39 44 44 38 36 33 31 31 34 33 33 33 33
61 80 84 85 59 65 62 91 70 56 67 74 75 66 60 70 63 63 65 63 60 61 62 59 57 56 51 50 48 47 47 47 47 46 47 47 44 40 42 44 40 36 35 35 36 38 38 37 38
81 86 89 90 71 73 80 88 82 74 75 80 79 74 71 65 60 57 59 59 55 54 53 54 52 53 51 47 45 47 48 48 47 46 47 49 47 43 43 45 46 43 41 39 39 40 41 41 39
79 87 97 94 81 84 87 86 79 76 80 82 78 72 69 62 53 51 49 51 50 47 47 47 49 48 47 47 46 49 50 50 49 47 46 47 49 47 47 46 46 47 48 46 43 42 44 48 40
78 88 95 91 77 72 79 82 73 80 71 64 62 60 56 52 51 50 47 47 46 45 44 43 42 42 44 47 48 47 47 49 49 49 47 48 50 47 46 46 46 47 50 50 47 43 47 52 48
77 85 93 92 87 77 77 85 71 54 45 43 43 43 45 48 49 47 46 43 44 44 45 42 39 38 40 41 42 43 41 45 51 51 52 51 52 48 46 45 44 45 49 53 53 52 52 58 59
102 80 85 87 84 91 58 84 64 41 39 36 35 35 37 38 39 40 41 41 41 43 42 40 38 36 38 40 44 47 50 52 53 54 53 51 50 48 45 44 43 44 47 52 53 55 57 56 65
95 83 78 77 77 74 63 64 66 35 43 42 38 35 34 32 32 34 35 35 35 36 36 35 32 33 33 38 42 46 50 51 49 50 52 51 50 48 46 45 44 45 47 49 53 57 62 62 67
69 69 71 65 60 67 52 50 55 43 36 32 29 30 31 30 28 27 29 29 31 32 31 32 32 32 33 38 41 45 49 51 53 53 53 52 51 48 46 45 45 45 46 51 56 59 63 68 68
65 79 81 71 53 53 47 53 55 34 20 21 24 25 27 26 26 27 28 29 29 30 30 31 32 34 36 39 41 48 51 53 54 55 55 53 53 54 54 51 50 51 50 54 55 60 65 69 75
78 59 61 69 55 48 52 51 33 26 19 13 17 20 22 24 26 28 29 29 30 29 30 31 33 35 37 40 42 44 47 54 55 56 57 58 57 57 55 54 54 55 56 56 57 62 67 71 75
64 58 61 58 56 55 60 41 32 24 25 21 21 21 25 27 30 30 31 31 32 32 34 32 35 37 37 39 42 44 46 49 54 60 58 60 60 57 53 51 51 52 53 55 56 60 66 73 78
48 64 52 41 51 53 58 38 35 29 28 27 27 25 27 29 31 31 33 33 35 34 37 35 36 37 37 39 42 45 47 49 53 58 60 57 58 57 54 53 53 51 51 54 59 62 65 71 80
65 48 50 50 50 49 60 32 33 29 29 30 31 33 34 32 34 34 35 35 36 36 37 36 39 41 41 42 45 47 48 51 51 52 55 59 58 57 55 56 55 55 55 55 60 66 69 72 79
30 36 48 39 43 54 58 41 33 29 30 33 35 39 41 39 40 39 38 40 41 40 40 41 44 43 45 45 50 51 52 53 53 54 57 59 63 59 54 52 55 57 61 62 65 71 70 72 77
Wind_Direction
346 357 3 354 320 310 299 300 305 305 306 310 306 294 285 285 284 286 309 296 296 298 243 218 238 213 155 80 18 20 8 344 17 38 273 260 264 269 271 266 292 34 353 331 18 24 357 332 354
355 1 354 335 313 302 303 310 305 305 310 305 300 293 291 285 283 295 298 295 294 294 270 247 240 232 235 241 252 266 297 293 280 313 279 272 268 271 276 253 262 269 316 332 14 7 360 318 343
17 1 345 329 316 307 308 314 309 309 303 300 298 292 290 290 287 288 296 293 287 288 280 268 241 239 241 248 250 250 259 256 267 270 277 276 273 273 273 258 266 269 288 292 313 25 357 333 357
37 26 4 326 315 316 316 319 318 312 307 299 295 292 294 294 297 293 291 292 289 286 285 274 254 247 247 249 254 256 257 251 255 266 270 272 269 266 254 280 273 274 285 290 302 355 353 320 357
78 49 349 330 321 326 330 326 326 314 311 304 297 289 292 297 296 294 293 290 285 282 285 279 266 257 255 255 256 257 258 256 257 259 258 263 267 269 274 295 280 275 287 292 291 336 18 59 42
48 38 344 332 332 340 347 349 333 316 311 310 298 293 291 300 292 293 290 287 283 278 279 280 272 267 264 260 257 256 255 255 255 254 260 259 259 271 275 290 291 278 280 284 280 282 295 74 52
26 4 341 335 330 337 341 5 332 323 307 303 310 295 298 294 291 289 288 285 280 276 275 274 274 271 268 264 261 258 256 255 252 251 257 257 259 269 282 285 286 279 279 282 274 268 270 273 81
17 5 341 341 334 333 357 2 1 334 314 325 316 302 296 297 290 287 286 283 280 276 273 271 271 271 270 266 261 258 256 254 250 247 252 251 255 274 282 287 278 274 279 276 271 260 263 280 85
1 344 333 336 333 333 351 343 349 352 319 325 312 303 310 310 301 287 281 279 277 275 273 270 269 268 268 268 264 258 257 253 251 249 247 235 261 272 281 279 277 272 274 268 264 259 261 264 281
336 331 332 336 334 330 334 329 329 328 316 305 303 299 299 298 292 283 277 274 272 271 271 270 269 268 267 266 265 260 257 255 252 247 240 251 261 268 274 277 275 275 271 260 255 263 250 258 270
332 318 323 322 322 321 320 317 316 312 303 307 307 301 297 291 286 280 275 272 270 269 269 270 270 269 267 264 263 262 259 255 253 247 244 251 258 265 267 273 271 273 266 257 260 254 259 263 261
316 317 313 318 320 318 313 312 305 299 297 307 307 303 302 293 286 280 275 272 268 267 266 266 267 266 265 264 262 261 259 256 253 248 242 245 253 259 263 266 266 266 262 257 257 258 258 258 258
309 312 313 313 313 310 307 300 300 298 301 298 295 290 288 286 284 281 277 273 270 268 267 267 267 261 260 261 261 261 259 257 253 249 244 242 248 255 260 263 262 263 261 259 257 259 254 255 259
318 312 312 312 309 307 303 297 298 299 304 296 293 285 284 283 277 275 274 273 270 269 269 269 264 261 260 259 259 260 260 257 255 251 247 243 247 252 255 260 261 261 260 260 256 256 253 253 256
314 310 310 307 310 307 309 297 297 302 302 297 290 287 284 284 278 269 271 271 272 271 270 269 266 260 258 258 258 259 260 258 256 253 248 244 247 250 251 257 259 260 260 256 257 255 252 252 255
309 308 309 318 318 315 310 296 307 310 308 303 297 286 283 282 278 270 269 273 275 274 271 268 266 262 256 256 257 258 260 259 257 254 253 248 246 249 252 255 256 257 258 255 254 253 251 251 251
310 303 305 310 315 313 302 302 311 309 304 300 297 291 277 281 278 273 271 273 276 276 272 268 263 260 257 254 256 258 260 260 259 256 255 253 251 248 250 254 256 253 254 254 253 251 251 250 251
308 304 304 305 313 310 303 299 300 299 298 294 292 287 280 280 278 278 275 274 276 278 275 269 265 260 256 255 256 258 260 261 261 259 257 256 255 252 253 254 257 255 254 252 251 250 251 249 251
307 304 303 305 307 304 303 301 302 301 294 291 289 284 279 277 279 280 279 278 277 279 277 273 267 261 254 252 253 257 257 259 260 261 260 257 258 256 255 257 253 253 255 255 251 249 244 249 246
306 304 304 307 310 306 305 302 303 302 299 296 291 284 278 275 276 278 278 279 279 279 279 277 270 263 257 255 257 261 258 262 262 263 263 260 259 258 257 258 255 249 252 254 250 250 248 249 243
306 306 306 306 310 305 306 302 302 304 304 304 300 290 282 276 273 276 277 279 281 280 280 278 274 267 262 258 258 262 264 268 265 264 263 261 262 262 261 259 257 251 249 251 246 247 245 251 247
306 311 308 306 306 303 311 303 304 301 300 301 301 296 288 283 280 279 279 281 284 284 283 281 278 271 265 262 261 262 264 265 266 264 264 263 264 264 262 260 259 254 251 250 250 244 244 246 248
306 311 307 305 301 302 297 299 303 293 290 289 290 293 293 295 292 288 287 288 293 291 289 290 282 279 271 267 266 265 267 269 270 267 265 265 266 266 265 263 261 257 253 252 249 248 245 247 247
318 317 313 305 301 296 295 290 297 290 286 287 293 293 292 297 299 302 302 300 297 299 297 294 287 285 287 277 273 271 270 270 268 267 266 266 267 266 266 265 264 260 256 253 253 251 247 248 250
328 323 315 308 305 304 316 304 297 311 304 290 291 297 295 299 300 301 304 307 306 303 304 300 297 290 291 288 285 278 274 272 270 268 268 267 268 268 266 265 265 263 262 257 255 253 251 250 251
319 315 310 309 308 309 312 307 317 327 328 324 304 301 303 304 303 303 305 306 307 307 312 310 304 298 297 293 292 288 286 275 273 272 271 269 269 270 270 268 266 265 263 263 258 257 257 251 252
322 312 313 303 297 297 294 306 309 298 303 307 310 305 300 301 300 301 305 305 307 307 307 315 308 303 303 301 297 293 291 285 281 275 275 272 270 270 270 269 269 269 266 264 260 257 256 253 252
318 318 310 303 299 290 286 287 295 287 281 289 291 306 316 307 303 303 301 304 304 309 304 311 306 306 309 307 303 298 295 293 289 285 277 276 273 270 269 269 271 271 272 267 263 263 259 256 254
317 316 309 295 293 287 273 293 304 292 293 299 301 307 308 307 307 308 303 300 302 303 307 308 305 305 308 308 304 301 301 298 295 295 290 280 277 274 273 272 272 271 271 270 266 263 260 256 255
341 334 326 306 293 280 267 271 290 306 309 307 308 312 311 307 306 306 306 299 299 302 301 297 302 306 306 309 304 299 299 301 298 296 294 289 282 277 279 279 278 275 270 266 267 265 263 257 255